| time (UTC) | temp F | wind direction | speed MPH | gust MPH | rain 1hr in | rain 24hr in | rain mn in | humidity % | barometer mb |
| 20260507000548 | 59 | 58 | 3.0 | 11.0 | 0.00 | 0.01 | 0.00 | 43 | 1015.7 |
| 20260506235526 | 59 | 58 | 5.0 | 11.0 | 0.00 | 0.01 | 0.00 | 44 | 1015.5 |
| 20260506234524 | 59 | 52 | 4.0 | 8.0 | 0.00 | 0.01 | 0.00 | 43 | 1015.3 |
| 20260506233522 | 60 | 65 | 4.0 | 8.0 | 0.00 | 0.01 | 0.00 | 41 | 1015.2 |
| 20260506232521 | 60 | 58 | 7.0 | 15.0 | 0.00 | 0.01 | 0.00 | 41 | 1015.0 |
| 20260506231519 | 60 | 59 | 5.0 | 9.0 | 0.00 | 0.01 | 0.00 | 41 | 1015.2 |
| 20260506230517 | 61 | 57 | 5.0 | 10.0 | 0.00 | 0.01 | 0.00 | 40 | 1015.2 |
| 20260506225535 | 61 | 59 | 5.0 | 9.0 | 0.00 | 0.01 | 0.00 | 40 | 1015.2 |
| 20260506224533 | 62 | 52 | 4.0 | 12.0 | 0.00 | 0.01 | 0.00 | 40 | 1015.1 |
| 20260506223531 | 63 | 39 | 4.0 | 9.0 | 0.00 | 0.02 | 0.00 | 38 | 1015.1 |
| 20260506222530 | 62 | 51 | 5.0 | 11.0 | 0.00 | 0.02 | 0.00 | 39 | 1015.1 |
| 20260506221528 | 62 | 63 | 5.0 | 9.0 | 0.00 | 0.02 | 0.00 | 40 | 1015.0 |
| 20260506220525 | 63 | 46 | 6.0 | 15.0 | 0.00 | 0.02 | 0.00 | 39 | 1015.1 |
| 20260506215524 | 62 | 47 | 5.0 | 11.0 | 0.00 | 0.02 | 0.00 | 40 | 1015.1 |
| 20260506214522 | 63 | 55 | 6.0 | 9.0 | 0.00 | 0.02 | 0.00 | 39 | 1015.1 |
| 20260506213520 | 62 | 58 | 3.0 | 8.0 | 0.00 | 0.02 | 0.00 | 41 | 1015.4 |
| 20260506212518 | 63 | 55 | 5.0 | 9.0 | 0.00 | 0.02 | 0.00 | 40 | 1015.5 |
| 20260506211516 | 62 | 59 | 4.0 | 8.0 | 0.00 | 0.02 | 0.00 | 41 | 1015.6 |
| 20260506210535 | 62 | 59 | 4.0 | 9.0 | 0.00 | 0.02 | 0.00 | 41 | 1015.8 |
| 20260506205533 | 63 | 49 | 4.0 | 10.0 | 0.00 | 0.02 | 0.00 | 42 | 1015.7 |
| 20260506204531 | 62 | 63 | 4.0 | 9.0 | 0.00 | 0.02 | 0.00 | 43 | 1015.6 |
| 20260506203529 | 62 | 58 | 5.0 | 15.0 | 0.00 | 0.02 | 0.00 | 42 | 1015.8 |
| 20260506202547 | 63 | 35 | 5.0 | 9.0 | 0.00 | 0.02 | 0.00 | 42 | 1015.7 |
| 20260506201545 | 62 | 20 | 5.0 | 10.0 | 0.00 | 0.02 | 0.00 | 42 | 1015.9 |
| 20260506200523 | 61 | 53 | 4.0 | 7.0 | 0.00 | 0.02 | 0.00 | 44 | 1016.2 |
| 20260506195542 | 61 | 47 | 5.0 | 10.0 | 0.00 | 0.02 | 0.00 | 44 | 1016.2 |
| 20260506194540 | 62 | 55 | 4.0 | 9.0 | 0.00 | 0.02 | 0.00 | 45 | 1016.2 |
| 20260506193518 | 62 | 61 | 6.0 | 10.0 | 0.00 | 0.02 | 0.00 | 44 | 1016.6 |
| 20260506192536 | 61 | 65 | 6.0 | 11.0 | 0.00 | 0.02 | 0.00 | 45 | 1016.6 |
| 20260506191534 | 61 | 55 | 5.0 | 7.0 | 0.00 | 0.02 | 0.00 | 46 | 1016.6 |
| 20260506190533 | 61 | 43 | 5.0 | 10.0 | 0.00 | 0.02 | 0.00 | 48 | 1016.9 |
| 20260506185531 | 60 | 63 | 4.0 | 7.0 | 0.00 | 0.02 | 0.00 | 49 | 1017.1 |
| 20260506184529 | 60 | 68 | 6.0 | 9.0 | 0.00 | 0.02 | 0.00 | 50 | 1017.3 |
| 20260506183547 | 59 | 71 | 5.0 | 12.0 | 0.00 | 0.02 | 0.00 | 49 | 1017.6 |
| 20260506182525 | 59 | 52 | 5.0 | 9.0 | 0.00 | 0.02 | 0.00 | 50 | 1017.6 |
| 20260506181523 | 59 | 53 | 5.0 | 11.0 | 0.00 | 0.02 | 0.00 | 50 | 1017.7 |
| 20260506180521 | 58 | 45 | 5.0 | 10.0 | 0.00 | 0.02 | 0.00 | 52 | 1017.6 |
| 20260506175519 | 58 | 63 | 5.0 | 11.0 | 0.00 | 0.02 | 0.00 | 56 | 1017.5 |
| 20260506174518 | 58 | 65 | 5.0 | 9.0 | 0.00 | 0.02 | 0.00 | 55 | 1017.7 |
| 20260506173516 | 58 | 47 | 4.0 | 9.0 | 0.00 | 0.02 | 0.00 | 55 | 1017.8 |
| 20260506172554 | 59 | 47 | 4.0 | 9.0 | 0.00 | 0.02 | 0.00 | 54 | 1017.7 |
| 20260506171532 | 59 | 71 | 4.0 | 7.0 | 0.00 | 0.02 | 0.00 | 56 | 1017.6 |
| 20260506170530 | 58 | 58 | 4.0 | 9.0 | 0.00 | 0.02 | 0.00 | 55 | 1017.2 |
| 20260506165548 | 57 | 62 | 5.0 | 9.0 | 0.00 | 0.02 | 0.00 | 56 | 1017.2 |
| 20260506164526 | 58 | 64 | 5.0 | 9.0 | 0.00 | 0.02 | 0.00 | 55 | 1017.1 |
| 20260506163524 | 58 | 50 | 3.0 | 8.0 | 0.00 | 0.02 | 0.00 | 57 | 1017.2 |
| 20260506162523 | 57 | 46 | 4.0 | 10.0 | 0.00 | 0.02 | 0.00 | 57 | 1017.2 |
| 20260506161521 | 56 | 31 | 4.0 | 6.0 | 0.00 | 0.02 | 0.00 | 57 | 1017.2 |
| 20260506160519 | 56 | 110 | 4.0 | 9.0 | 0.00 | 0.02 | 0.00 | 59 | 1017.1 |
| 20260506155517 | 55 | 100 | 4.0 | 9.0 | 0.00 | 0.02 | 0.00 | 62 | 1016.9 |
| 20260506154515 | 54 | 75 | 3.0 | 7.0 | 0.00 | 0.02 | 0.00 | 63 | 1016.8 |
| 20260506153533 | 52 | 79 | 4.0 | 8.0 | 0.00 | 0.02 | 0.00 | 64 | 1016.8 |
| 20260506152532 | 52 | 66 | 5.0 | 9.0 | 0.00 | 0.02 | 0.00 | 64 | 1016.8 |
| 20260506151530 | 52 | 66 | 4.0 | 9.0 | 0.00 | 0.02 | 0.00 | 65 | 1017.0 |
| 20260506150548 | 51 | 53 | 4.0 | 6.0 | 0.00 | 0.02 | 0.00 | 66 | 1017.1 |
| 20260506145526 | 51 | 76 | 4.0 | 6.0 | 0.00 | 0.02 | 0.00 | 67 | 1016.9 |
| 20260506144604 | 50 | 77 | 5.0 | 9.0 | 0.00 | 0.02 | 0.00 | 67 | 1017.0 |
| 20260506143522 | 50 | 49 | 6.0 | 9.0 | 0.00 | 0.02 | 0.00 | 69 | 1016.7 |
| 20260506142521 | 49 | 69 | 5.0 | 9.0 | 0.00 | 0.02 | 0.00 | 71 | 1016.7 |
| 20260506141539 | 49 | 59 | 4.0 | 9.0 | 0.00 | 0.02 | 0.00 | 72 | 1016.8 |
| 20260506140537 | 49 | 59 | 4.0 | 8.0 | 0.00 | 0.02 | 0.00 | 74 | 1016.5 |
| 20260506135535 | 48 | 55 | 5.0 | 8.0 | 0.00 | 0.02 | 0.00 | 74 | 1016.6 |
| 20260506134533 | 48 | 56 | 4.0 | 8.0 | 0.00 | 0.02 | 0.00 | 76 | 1016.4 |
| 20260506133531 | 47 | 68 | 4.0 | 8.0 | 0.00 | 0.02 | 0.00 | 80 | 1016.3 |
| 20260506132530 | 47 | 56 | 6.0 | 10.0 | 0.00 | 0.02 | 0.00 | 81 | 1016.4 |
| 20260506131547 | 46 | 54 | 4.0 | 9.0 | 0.00 | 0.02 | 0.00 | 84 | 1016.4 |
| 20260506130526 | 46 | 58 | 5.0 | 11.0 | 0.00 | 0.02 | 0.00 | 84 | 1016.6 |
| 20260506125524 | 46 | 72 | 4.0 | 7.0 | 0.00 | 0.02 | 0.00 | 86 | 1016.6 |
| 20260506124522 | 46 | 59 | 5.0 | 9.0 | 0.00 | 0.02 | 0.00 | 85 | 1016.6 |
| 20260506123520 | 46 | 62 | 4.0 | 6.0 | 0.00 | 0.02 | 0.00 | 86 | 1016.7 |
| 20260506122518 | 45 | 60 | 3.0 | 5.0 | 0.00 | 0.02 | 0.00 | 87 | 1016.4 |
| 20260506121516 | 45 | 60 | 4.0 | 7.0 | 0.00 | 0.02 | 0.00 | 87 | 1016.3 |
| 20260506120534 | 45 | 55 | 4.0 | 6.0 | 0.00 | 0.02 | 0.00 | 88 | 1016.3 |
| 20260506115533 | 45 | 53 | 4.0 | 8.0 | 0.00 | 0.02 | 0.00 | 89 | 1016.2 |
| 20260506114531 | 45 | 57 | 3.0 | 6.0 | 0.00 | 0.02 | 0.00 | 90 | 1016.1 |
| 20260506113529 | 45 | 75 | 4.0 | 9.0 | 0.00 | 0.02 | 0.00 | 90 | 1015.6 |
| 20260506112527 | 45 | 35 | 4.0 | 9.0 | 0.00 | 0.02 | 0.00 | 89 | 1015.4 |
| 20260506111525 | 45 | 59 | 4.0 | 7.0 | 0.00 | 0.03 | 0.00 | 90 | 1015.3 |
| 20260506110543 | 45 | 45 | 4.0 | 6.0 | 0.00 | 0.03 | 0.00 | 89 | 1015.0 |
| 20260506105521 | 45 | 65 | 4.0 | 7.0 | 0.00 | 0.03 | 0.00 | 89 | 1014.8 |
| 20260506104520 | 45 | 64 | 4.0 | 9.0 | 0.00 | 0.03 | 0.00 | 89 | 1014.5 |
| 20260506103518 | 45 | 55 | 3.0 | 6.0 | 0.00 | 0.03 | 0.00 | 88 | 1014.8 |
| 20260506102536 | 45 | 42 | 4.0 | 7.0 | 0.00 | 0.03 | 0.00 | 87 | 1014.6 |
| 20260506101534 | 45 | 66 | 4.0 | 8.0 | 0.00 | 0.04 | 0.00 | 86 | 1014.5 |
| 20260506100532 | 45 | 69 | 4.0 | 7.0 | 0.00 | 0.04 | 0.00 | 85 | 1014.2 |
| 20260506095530 | 45 | 58 | 4.0 | 7.0 | 0.00 | 0.04 | 0.00 | 84 | 1014.4 |
| 20260506094529 | 45 | 37 | 3.0 | 6.0 | 0.00 | 0.04 | 0.00 | 84 | 1014.0 |
| 20260506093547 | 46 | 65 | 4.0 | 7.0 | 0.00 | 0.05 | 0.00 | 83 | 1013.6 |
| 20260506092525 | 46 | 84 | 3.0 | 6.0 | 0.00 | 0.05 | 0.00 | 83 | 1014.4 |
| 20260506091523 | 45 | 47 | 3.0 | 4.0 | 0.00 | 0.05 | 0.00 | 82 | 1014.1 |
| 20260506090521 | 45 | 62 | 4.0 | 8.0 | 0.00 | 0.05 | 0.00 | 83 | 1013.4 |
| 20260506085539 | 45 | 62 | 3.0 | 5.0 | 0.00 | 0.05 | 0.00 | 83 | 1013.4 |
| 20260506084517 | 45 | 76 | 3.0 | 6.0 | 0.00 | 0.06 | 0.00 | 84 | 1012.8 |
| 20260506083516 | 45 | 63 | 3.0 | 6.0 | 0.00 | 0.07 | 0.00 | 84 | 1012.2 |
| 20260506082534 | 45 | 65 | 5.0 | 9.0 | 0.00 | 0.09 | 0.00 | 85 | 1011.7 |
| 20260506081532 | 45 | 66 | 5.0 | 8.0 | 0.00 | 0.09 | 0.00 | 85 | 1012.1 |
| 20260506080530 | 45 | 66 | 4.0 | 8.0 | 0.00 | 0.10 | 0.00 | 85 | 1012.0 |
| 20260506073525 | 45 | 66 | 4.0 | 7.0 | 0.00 | 0.11 | 0.00 | 86 | 1012.6 |
| 20260506072543 | 45 | 63 | 5.0 | 9.0 | 0.00 | 0.11 | 0.00 | 85 | 1013.1 |
| 20260506071521 | 45 | 46 | 5.0 | 8.0 | 0.00 | 0.11 | 0.00 | 86 | 1013.1 |
| 20260506070519 | 45 | 59 | 4.0 | 8.0 | 0.00 | 0.11 | 0.00 | 86 | 1013.3 |
| 20260506061530 | 45 | 87 | 4.0 | 6.0 | 0.00 | 0.11 | 0.00 | 88 | 1013.4 |
| 20260506060528 | 45 | 38 | 5.0 | 9.0 | 0.00 | 0.11 | 0.00 | 87 | 1013.4 |
| 20260506050516 | 45 | 35 | 5.0 | 9.0 | 0.00 | 0.11 | 0.00 | 87 | 1012.7 |
| 20260506044533 | 45 | 61 | 4.0 | 8.0 | 0.00 | 0.11 | 0.11 | 88 | 1012.3 |
| 20260506043531 | 45 | 75 | 3.0 | 6.0 | 0.00 | 0.11 | 0.11 | 89 | 1012.1 |
| 20260506042529 | 45 | 56 | 5.0 | 10.0 | 0.00 | 0.11 | 0.11 | 89 | 1012.1 |
| 20260506041527 | 45 | 57 | 5.0 | 10.0 | 0.00 | 0.11 | 0.11 | 90 | 1011.9 |
| 20260506040525 | 45 | 62 | 5.0 | 8.0 | 0.00 | 0.11 | 0.11 | 89 | 1012.0 |
| 20260506035524 | 46 | 71 | 7.0 | 14.0 | 0.00 | 0.11 | 0.11 | 88 | 1012.0 |
| 20260506034522 | 46 | 44 | 4.0 | 8.0 | 0.01 | 0.11 | 0.11 | 89 | 1012.0 |
| 20260506033520 | 46 | 65 | 5.0 | 14.0 | 0.01 | 0.11 | 0.11 | 89 | 1012.3 |
| 20260506032518 | 46 | 56 | 4.0 | 7.0 | 0.01 | 0.11 | 0.11 | 90 | 1012.2 |
| 20260506031516 | 46 | 57 | 4.0 | 9.0 | 0.01 | 0.11 | 0.11 | 90 | 1011.7 |
| 20260506030534 | 46 | 55 | 5.0 | 9.0 | 0.01 | 0.11 | 0.11 | 90 | 1011.3 |
| 20260506025532 | 46 | 56 | 4.0 | 9.0 | 0.01 | 0.11 | 0.11 | 89 | 1011.4 |
| 20260506024611 | 46 | 72 | 5.0 | 8.0 | 0.00 | 0.10 | 0.10 | 88 | 1011.4 |
| 20260506023549 | 46 | 58 | 5.0 | 11.0 | 0.00 | 0.10 | 0.10 | 88 | 1010.9 |
| 20260506022527 | 46 | 57 | 6.0 | 9.0 | 0.00 | 0.10 | 0.10 | 89 | 1011.0 |
| 20260506021525 | 46 | 60 | 6.0 | 10.0 | 0.00 | 0.10 | 0.10 | 88 | 1010.8 |
| 20260506020523 | 46 | 53 | 4.0 | 8.0 | 0.00 | 0.10 | 0.10 | 88 | 1010.6 |
| 20260506015521 | 46 | 65 | 6.0 | 9.0 | 0.00 | 0.10 | 0.10 | 87 | 1010.5 |
| 20260506014520 | 46 | 59 | 6.0 | 12.0 | 0.00 | 0.10 | 0.10 | 88 | 1010.3 |
| 20260506013517 | 46 | 57 | 5.0 | 9.0 | 0.00 | 0.10 | 0.10 | 89 | 1010.3 |
| 20260506012516 | 46 | 55 | 5.0 | 10.0 | 0.00 | 0.10 | 0.10 | 89 | 1010.2 |
| 20260506011534 | 46 | 48 | 8.0 | 16.0 | 0.00 | 0.10 | 0.10 | 89 | 1009.8 |
| 20260506010532 | 46 | 61 | 5.0 | 11.0 | 0.00 | 0.10 | 0.10 | 89 | 1010.3 |
| 20260506005550 | 46 | 55 | 5.0 | 11.0 | 0.00 | 0.10 | 0.10 | 89 | 1010.0 |
| 20260506004528 | 46 | 58 | 4.0 | 9.0 | 0.00 | 0.10 | 0.10 | 89 | 1010.0 |
| 20260506003526 | 46 | 55 | 5.0 | 11.0 | 0.00 | 0.10 | 0.10 | 88 | 1009.7 |
| 20260506002525 | 46 | 72 | 6.0 | 12.0 | 0.00 | 0.10 | 0.10 | 88 | 1009.6 |
| 20260506001523 | 46 | 51 | 6.0 | 12.0 | 0.00 | 0.10 | 0.10 | 87 | 1009.5 |